Regional Weather Roundup
Issued by NWS

Home | Current Version | Previous Version | Text Only | Print | Product List | Glossary Off
Versions: 1 2 3 4 5 6 7 8 9 10 11 12 13 14 15 16 17 18 19 20 21 22 23 24 25 26 27 28 29 30 31 32 33 34 35 36 37 38 39 40 41 42 43 44 45 46 47 48 49 50

000
ASUS43 KFSD 181610
RWRSD

WEATHER ROUNDUP FOR SOUTH DAKOTA
NATIONAL WEATHER SERVICE SIOUX FALLS SD
1100 AM CDT FRI AUG 18 2017

NOTE: "FAIR" INDICATES FEW OR NO CLOUDS BELOW 12,000 FEET WITH NO
SIGNIFICANT WEATHER AND/OR OBSTRUCTIONS TO VISIBILITY.


SDZ001>005-009-010-012>017-181700-
NORTHWEST AND NORTH CENTRAL SOUTH DAKOTA

CITY           SKY/WX    TMP DP  RH WIND       PRES   REMARKS
BUFFALO          N/A     73  48  41 CALM      29.99S
FAITH            N/A     75  48  38 N10       30.01R
MOBRIDGE       MOSUNNY   69  58  67 N14       29.94R
$$

SDZ012>016-024>037-041>051-057-063-072>074-181700-
SOUTHWEST AND SOUTH CENTRAL SOUTH DAKOTA

CITY           SKY/WX    TMP DP  RH WIND       PRES   REMARKS
RAPID CTY ARPT SUNNY     74  48  39 NW12      30.06S
PIERRE         SUNNY     73  59  61 W9        29.95R
CUSTER         SUNNY     73  37  27 NW9       30.19S
ELLSWORTH AFB  SUNNY     74  46  36 N15       30.05S
PHILIP         SUNNY     77  53  43 NW7       30.01R
PINE RIDGE     SUNNY     75  52  44 W7        30.08R
SPEARFISH      FAIR      77  41  27 W9        30.10S
WINNER         FAIR      74  56  53 NW10      29.96R
$$

SDZ004>011-016>023-039-040-181700-
NORTHEAST SOUTH DAKOTA

CITY           SKY/WX    TMP DP  RH WIND       PRES   REMARKS
ABERDEEN       SUNNY     71  61  70 SW13G23   29.89R
WATERTOWN      SUNNY     72  60  66 SW9       29.90S
BROOKINGS      SUNNY     70  61  73 S7        29.94S
SISSETON         N/A     68  61  78 N5        29.89R
$$

SDZ017-020-022-023-036>040-048>070-181700-
SOUTHEAST SOUTH DAKOTA

CITY           SKY/WX    TMP DP  RH WIND       PRES   REMARKS
SIOUX FALLS    MOSUNNY   73  62  68 S9        29.94S
HURON          SUNNY     72  62  71 SW9       29.91R
CHAMBERLAIN    MOSUNNY   71  63  75 W9        29.95R
MITCHELL       SUNNY     73  63  70 SW9       29.91F
YANKTON        SUNNY     74  60  61 S5        29.95S
$$

ABBREVIATIONS USED IN REMARKS
   TC - TEMPERATURE IN CELSIUS
  WCI - WIND CHILL INDEX
   HX - HEAT INDEX
  VSB - VISIBILITY





USA.gov is the U.S. government's official web portal to all federal, state and local government web resources and services.